Flag for Sudan Weather past 2 weeks in Khartoum, Sudan

Now
91 °F

Passing clouds.


Feels Like: 96 °F
Forecast: 86 / 93 °F
Wind: 9 mph from South

Location: Khartoum Airport

Current Time: Jul 30, 2014 at 12:23:59 AM

Latest Report: Jul 30, 2014 at 12:00 AM


Visibility: N/A

Pressure: 29.83 "Hg

Humidity: 46%

Dew point: 68 °F

Location of KhartoumLocation

Historic Weather in Khartoum — Graph

°F

Khartoum temperature yesterday

Maximum temperature yesterday: 99 °F (at 4:00 PM)
Minimum temperature yesterday: 81 °F (at 5:00 AM)
Average temperature yesterday: 89 °F

Past Weeks' High & Low Weather Summary

 TemperatureHumidityPressure
High102 °F (Jul 16, 3:00 PM)94% (Jul 25, 7:00 PM)30.01 "Hg (Jul 25, 7:00 PM)
Low72 °F (Jul 25, 7:00 PM)11% (Jul 16, 8:00 PM)29.74 "Hg (Jul 15, 2:30 AM)
Average87 °F52%29.86 "Hg
* Reported Jul 14 11:00 PM — Jul 29 11:00 PM, Khartoum, Weather by CustomWeather, © 2014

Note: Actual official high and low records may vary slightly from our data, if they occured in-between our weather recording intervals... More about our weather records

Advertising

Khartoum weather history for previous 24 hours

 ConditionsComfort  
Time TempWeatherWind HumidityBarometerVisibility
11:00 PM
Jul 29
91 °FPassing clouds.7 mph46%29.80 "HgN/A
10:30 PMN/AClear.6 mphN/A29.80 "Hg10 mi
10:00 PM93 °FClear.9 mph41%29.80 "Hg10 mi
9:30 PMN/AClear.8 mphN/A29.80 "Hg10 mi
9:00 PM93 °FClear.5 mph41%29.83 "Hg10 mi
8:30 PMN/AClear.8 mphN/A29.83 "Hg10 mi
8:00 PM95 °FClear.5 mph39%29.77 "Hg10 mi
7:30 PMN/AClear.6 mphN/A29.77 "Hg10 mi
7:00 PM97 °FPassing clouds.6 mph34%29.77 "HgN/A
6:30 PMN/APassing clouds.3 mphN/AN/AN/A
6:00 PM99 °FScattered clouds.6 mph31%29.80 "HgN/A
5:30 PMN/AScattered clouds.5 mphN/A29.77 "HgN/A
4:00 PM99 °FScattered clouds.9 mph33%29.80 "HgN/A
3:30 PMN/AScattered clouds.6 mphN/A29.83 "HgN/A
3:00 PM97 °FScattered clouds.9 mph34%29.83 "HgN/A
2:30 PMN/AScattered clouds.9 mphN/A29.86 "HgN/A
2:00 PM97 °FPassing clouds.8 mph34%29.86 "HgN/A
1:30 PMN/A6 mphN/AN/AN/A
1:00 PM95 °FPassing clouds.9 mph41%29.89 "HgN/A
12:30 PMN/ASunny.8 mphN/A29.89 "Hg10 mi
12:00 PM91 °FSunny.8 mph46%29.92 "Hg10 mi
11:30 AMN/ASunny.7 mphN/A29.92 "Hg10 mi
11:00 AM90 °FSunny.7 mph43%29.92 "Hg10 mi
10:30 AMN/ASunny.5 mphN/A29.89 "Hg10 mi
10:00 AM90 °FSunny.2 mph49%29.92 "Hg10 mi
9:30 AMN/ASunny.2 mphN/A29.92 "Hg10 mi
9:00 AM88 °FSunny.2 mph55%29.89 "Hg10 mi
8:30 AMN/ASunny.2 mphN/A29.89 "Hg10 mi
8:00 AM82 °FSunny.3 mph74%29.89 "Hg10 mi
7:30 AMN/ASunny.2 mphN/A29.89 "Hg10 mi
7:00 AM81 °FSunny.3 mph84%29.89 "Hg10 mi
6:30 AMN/ASunny.3 mphN/A29.89 "Hg10 mi
6:00 AM81 °FClear.3 mph84%29.89 "Hg10 mi
5:30 AMN/AClear.5 mphN/A29.89 "Hg10 mi
5:00 AM81 °FClear.3 mph84%29.89 "Hg10 mi
4:30 AMN/AClear.5 mphN/A29.89 "Hg10 mi
4:00 AM82 °FClear.3 mph74%29.89 "Hg10 mi
3:30 AMN/AClear.No windN/A29.89 "Hg10 mi
3:00 AM82 °FClear.3 mph79%29.89 "Hg10 mi
2:30 AMN/AClear.2 mphN/A29.89 "Hg10 mi
2:00 AM82 °FClear.2 mph79%29.92 "Hg10 mi
1:30 AMN/AClear.2 mphN/A29.92 "Hg10 mi
1:00 AM82 °FClear.No wind79%29.95 "Hg10 mi
Weather by CustomWeather, © 2014

See weather overviewHow to use our weather pages